EA3AGQ-1 Weather Reports


time (UTC)temp
C
wind
direction
speed
KPH
gust
KPH
rain 1hr
cm
rain 24hr
cm
rain mn
cm
humidity
%
barometer
mb
20190425015911 3 135 20.9 22.5 0.00 0.00 0.00 80 2.0
20190425015414 3 212 19.3 12.9 0.00 0.00 0.00 81 2.0
20190425014912 3 173 27.4 12.9 0.00 0.00 0.00 81 2.0
20190425014412 3 171 24.1 29.0 0.00 0.00 0.00 81 2.0
20190425013911 3 151 14.5 11.3 0.00 0.00 0.00 81 2.0
20190425013412 3 62 16.1 8.0 0.00 0.00 0.00 81 2.0
20190425012912 3 127 16.1 11.3 0.00 0.00 0.00 81 2.0
20190425012412 3 262 17.7 9.7 0.00 0.00 0.00 81 2.0
20190425011911 3 230 22.5 22.5 0.00 0.00 0.00 81 2.0
20190425011414 3 288 16.1 12.9 0.00 0.00 0.00 81 2.0
20190425010913 3 199 20.9 14.5 0.00 0.00 0.00 81 2.0
20190425005912 3 190 12.9 9.7 0.00 0.00 0.00 81 2.0
20190425005412 3 56 19.3 22.5 0.00 0.00 0.00 82 2.0
20190425004910 3 84 20.9 24.1 0.00 0.00 0.00 82 2.0
20190425004411 3 103 19.3 11.3 0.00 0.00 0.00 82 2.0
20190425003913 3 143 20.9 14.5 0.00 0.00 0.00 82 2.0
20190425003412 3 246 16.1 12.9 0.00 0.00 0.00 82 2.0
20190425002912 3 204 27.4 17.7 0.00 0.00 0.00 82 2.0
20190425002410 3 91 19.3 9.7 0.00 0.00 0.00 82 2.0
20190425001954 3 29 14.5 17.7 0.00 0.00 0.00 82 2.0
20190425001910 3 29 14.5 17.7 0.00 0.00 0.00 82 2.0
20190425001410 3 255 11.3 11.3 0.00 0.00 0.00 82 2.0
20190425000912 3 217 16.1 12.9 0.00 0.00 0.00 82 2.0
20190425000413 3 45 19.3 14.5 0.00 0.00 0.00 82 2.0
20190424235911 3 228 17.7 40.2 0.00 0.00 0.00 82 1.0
20190424235411 2 182 20.9 25.7 0.00 0.00 0.00 82 1.0
20190424234911 2 89 25.7 20.9 0.00 0.00 0.00 82 1.0
20190424234411 2 54 25.7 20.9 0.00 0.00 0.00 82 2.0
20190424233910 2 168 19.3 20.9 0.00 0.00 0.00 82 2.0
20190424233411 2 184 35.4 17.7 0.00 0.00 0.00 82 2.0
20190424232910 2 239 22.5 11.3 0.00 0.00 0.00 82 2.0
20190424232412 2 279 14.5 9.7 0.00 0.00 0.00 82 2.0
20190424231912 2 292 22.5 45.1 0.00 0.00 0.00 82 2.0
20190424231410 2 255 24.1 22.5 0.00 0.00 0.00 82 1.0
20190424230911 2 93 24.1 20.9 0.00 0.00 0.00 82 1.0
20190424230410 2 242 20.9 20.9 0.00 0.00 0.00 82 1.0
20190424225912 2 267 30.6 40.2 0.00 0.00 0.00 82 1.0
20190424225449 2 108 22.5 19.3 0.00 0.00 0.00 82 1.0
20190424225410 2 108 22.5 19.3 0.00 0.00 0.00 82 1.0
20190424224910 2 70 24.1 14.5 0.00 0.00 0.00 82 1.0
20190424224410 2 173 22.5 38.6 0.00 0.00 0.00 82 1.0
20190424223912 2 104 20.9 24.1 0.00 0.00 0.00 82 1.0
20190424223412 2 190 22.5 19.3 0.00 0.00 0.00 82 1.0
20190424222912 2 148 24.1 19.3 0.00 0.00 0.00 82 1.0
20190424222410 2 142 19.3 12.9 0.00 0.00 0.00 82 1.0
20190424221912 2 159 27.4 17.7 0.00 0.00 0.00 81 1.0
20190424221412 1 136 22.5 37.0 0.00 0.00 0.00 81 1.0
20190424220912 1 191 29.0 37.0 0.00 0.00 0.00 81 1.0
20190424215411 1 245 27.4 20.9 0.00 0.00 0.00 81 1.0
20190424214912 1 161 24.1 20.9 0.00 0.00 0.00 81 1.0
20190424214411 1 65 24.1 29.0 0.00 0.00 0.00 81 1.0
20190424213911 1 280 24.1 33.8 0.00 0.00 0.00 81 1.0
20190424213412 1 197 30.6 32.2 0.00 0.00 0.00 81 1.0
20190424212912 1 296 19.3 24.1 0.00 0.00 0.00 81 1.0
20190424212411 2 148 29.0 19.3 0.00 0.00 0.00 81 1.0
20190424211912 2 287 29.0 22.5 0.00 0.00 0.00 81 1.0
20190424211412 2 125 24.1 25.7 0.00 0.00 0.00 81 1.0
20190424210911 2 149 22.5 30.6 0.00 0.00 0.00 80 1.0
20190424210411 2 171 29.0 12.9 0.00 0.00 0.00 80 1.0
20190424205912 2 97 20.9 38.6 0.00 0.00 0.00 80 1.0
20190424205412 2 279 29.0 19.3 0.00 0.00 0.00 80 1.0
20190424204914 2 356 29.0 25.7 0.00 0.00 0.00 80 1.0
20190424204414 2 96 24.1 14.5 0.00 0.00 0.00 80 2.0
20190424203912 2 112 24.1 22.5 0.00 0.00 0.00 80 2.0
20190424203410 2 226 17.7 14.5 0.00 0.00 0.00 80 2.0
20190424202912 2 98 22.5 20.9 0.00 0.00 0.00 80 2.0
20190424202411 2 147 25.7 19.3 0.00 0.00 0.00 79 2.0
20190424201911 2 280 14.5 14.5 0.00 0.00 0.00 79 2.0
20190424200912 2 304 24.1 11.3 0.00 0.00 0.00 79 2.0
20190424200412 2 189 17.7 25.7 0.00 0.00 0.00 79 2.0
20190424195412 2 83 14.5 20.9 0.00 0.00 0.00 78 1.0
20190424194912 2 99 22.5 11.3 0.00 0.00 0.00 78 1.0
20190424194411 2 90 19.3 17.7 0.00 0.00 0.00 78 2.0
20190424193910 2 153 17.7 16.1 0.00 0.00 0.00 77 2.0
20190424193413 2 138 24.1 11.3 0.00 0.00 0.00 77 2.0
20190424192910 2 300 17.7 14.5 0.00 0.00 0.00 77 2.0
20190424192416 2 75 16.1 16.1 0.00 0.00 0.00 76 2.0
20190424191412 2 28 20.9 14.5 0.00 0.00 0.00 75 2.0
20190424190912 2 188 20.9 16.1 0.00 0.00 0.00 74 2.0
20190424190412 2 90 16.1 16.1 0.00 0.00 0.00 72 2.0
20190424185911 2 29 20.9 19.3 0.00 0.00 0.00 71 1.0
20190424184912 2 201 17.7 24.1 0.00 0.00 0.00 68 1.0
20190424183914 2 138 17.7 30.6 0.00 0.00 0.00 63 1.0
20190424183414 2 201 16.1 17.7 0.00 0.00 0.00 60 1.0
20190424182912 2 52 16.1 22.5 0.00 0.00 0.00 57 2.0
20190424182412 2 304 16.1 22.5 0.00 0.00 0.00 56 2.0
20190424181912 2 160 24.1 14.5 0.00 0.00 0.00 56 2.0
20190424181411 2 71 25.7 19.3 0.00 0.00 0.00 59 1.0
20190424180921 2 330 14.5 30.6 0.00 0.00 0.00 60 1.0
20190424180412 2 124 29.0 56.3 0.00 0.00 0.00 63 1.0
20190424175913 2 189 32.2 16.1 0.00 0.00 0.00 64 1.0
20190424175411 2 105 17.7 11.3 0.00 0.00 0.00 65 1.0
20190424174913 2 147 25.7 16.1 0.00 0.00 0.00 66 1.0
20190424174412 3 113 16.1 19.3 0.00 0.00 0.00 65 1.0
20190424172912 3 236 12.9 9.7 0.00 0.00 0.00 60 2.0
20190424172419 3 106 17.7 25.7 0.00 0.00 0.00 59 2.0
20190424171911 3 154 16.1 12.9 0.00 0.00 0.00 58 2.0
20190424171417 3 103 16.1 14.5 0.00 0.00 0.00 57 2.0
20190424170911 3 241 11.3 12.9 0.00 0.00 0.00 57 2.0
20190424170411 3 192 11.3 14.5 0.00 0.00 0.00 57 2.0
20190424165911 3 297 11.3 11.3 0.00 0.00 0.00 56 2.0
20190424164911 3 334 20.9 22.5 0.00 0.00 0.00 54 2.0
20190424164411 3 170 12.9 14.5 0.00 0.00 0.00 53 2.0
20190424163912 3 116 16.1 27.4 0.00 0.00 0.00 51 2.0
20190424163411 3 100 14.5 17.7 0.00 0.00 0.00 51 2.0
20190424162911 3 186 11.3 17.7 0.00 0.00 0.00 51 2.0
20190424162411 3 143 16.1 22.5 0.00 0.00 0.00 50 2.0
20190424161911 3 81 12.9 16.1 0.00 0.00 0.00 50 2.0
20190424161412 3 138 14.5 8.0 0.00 0.00 0.00 50 2.0
20190424160913 4 108 12.9 11.3 0.00 0.00 0.00 50 2.0
20190424160411 4 81 11.3 9.7 0.00 0.00 0.00 49 2.0
20190424155911 3 236 12.9 11.3 0.00 0.00 0.00 49 2.0
20190424155411 3 227 11.3 16.1 0.00 0.00 0.00 50 2.0
20190424154912 3 134 12.9 19.3 0.00 0.00 0.00 50 2.0
20190424154417 3 199 11.3 12.9 0.00 0.00 0.00 49 2.0
20190424153914 3 252 8.0 12.9 0.00 0.00 0.00 49 2.0
20190424153411 4 184 11.3 8.0 0.00 0.00 0.00 50 2.0
20190424152912 4 154 9.7 14.5 0.00 0.00 0.00 51 2.0
20190424151911 3 196 12.9 9.7 0.00 0.00 0.00 52 2.0
20190424151411 3 303 11.3 8.0 0.00 0.00 0.00 52 2.0
20190424150911 3 54 11.3 19.3 0.00 0.00 0.00 54 2.0
20190424150412 3 72 12.9 11.3 0.00 0.00 0.00 56 2.0
20190424145911 3 169 11.3 11.3 0.00 0.00 0.00 60 2.0
20190424145414 3 108 14.5 9.7 0.00 0.00 0.00 61 2.0
20190424144911 2 112 14.5 11.3 0.00 0.00 0.00 64 2.0
20190424144411 2 250 8.0 29.0 0.00 0.00 0.00 67 2.0
20190424143912 2 32 11.3 14.5 0.00 0.00 0.00 71 2.0
20190424143411 2 159 16.1 16.1 0.00 0.00 0.00 71 2.0
20190424142919 1 211 11.3 6.4 0.00 0.00 0.00 73 2.0
20190424142415 1 145 14.5 11.3 0.00 0.00 0.00 74 2.0
20190424141911 1 9 11.3 11.3 0.00 0.00 0.00 75 2.0
20190424140911 1 271 9.7 12.9 0.00 0.00 0.00 76 2.0
20190424135911 1 208 14.5 12.9 0.00 0.00 0.00 76 2.0
20190424135416 1 180 12.9 9.7 0.00 0.00 0.00 76 2.0
20190424134416 1 160 14.5 17.7 0.00 0.00 0.00 75 2.0
20190424133913 0 173 22.5 20.9 0.00 0.00 0.00 74 2.0
20190424133413 0 275 8.0 11.3 0.00 0.00 0.00 74 2.0
20190424132911 1 142 11.3 14.5 0.00 0.00 0.00 73 2.0
20190424131911 1 191 12.9 14.5 0.00 0.00 0.00 72 2.0
20190424130911 1 152 24.1 25.7 0.00 0.00 0.00 69 1.0
20190424125912 1 184 16.1 17.7 0.00 0.00 0.00 65 2.0
20190424125413 1 203 11.3 19.3 0.00 0.00 0.00 61 2.0
20190424124912 1 177 14.5 12.9 0.00 0.00 0.00 57 2.0
20190424124414 1 116 11.3 9.7 0.00 0.00 0.00 53 2.0
20190424123911 1 91 9.7 11.3 0.00 0.00 0.00 50 2.0
20190424122911 2 88 12.9 9.7 0.00 0.00 0.00 44 1.0
20190424122412 2 7 12.9 11.3 0.00 0.00 0.00 41 1.0
20190424121911 3 37 11.3 24.1 0.00 0.00 0.00 40 1.0
20190424121415 3 102 9.7 8.0 0.00 0.00 0.00 39 2.0
20190424114911 3 132 16.1 11.3 0.00 0.00 0.00 39 1.0
20190424114414 4 151 16.1 12.9 0.00 0.00 0.00 39 1.0
20190424113911 5 185 11.3 9.7 0.00 0.00 0.00 39 1.0
20190424113412 5 150 9.7 16.1 0.00 0.00 0.00 42 1.0
20190424112911 4 93 8.0 6.4 0.00 0.00 0.00 42 1.0
20190424112411 4 105 11.3 11.3 0.00 0.00 0.00 43 1.0
20190424111911 3 140 16.1 14.5 0.00 0.00 0.00 40 1.0
20190424110912 4 79 11.3 8.0 0.00 0.00 0.00 52 1.0
20190424110413 3 128 9.7 9.7 0.00 0.00 0.00 53 1.0
20190424105911 4 166 9.7 16.1 0.00 0.00 0.00 65 1.0
20190424105414 3 147 8.0 8.0 0.00 0.00 0.00 60 1.0
20190424104911 2 101 9.7 11.3 0.00 0.00 0.00 69 1.0
20190424104412 2 100 8.0 19.3 0.00 0.00 0.00 70 1.0
20190424103913 2 135 6.4 6.4 0.00 0.00 0.00 71 1.0
20190424103415 3 50 8.0 6.4 0.00 0.00 0.00 75 1.0
20190424102911 3 218 4.8 4.8 0.00 0.00 0.00 77 1.0
20190424102411 2 37 8.0 0.0 0.00 0.00 0.00 77 1.0
20190424101914 2 49 11.3 4.8 0.00 0.00 0.00 78 1.0
20190424101411 2 169 17.7 11.3 0.00 0.00 0.00 78 1.0
20190424100912 1 134 9.7 12.9 0.00 0.00 0.00 78 1.0
20190424100413 1 92 8.0 0.0 0.00 0.00 0.00 78 1.0
20190424095913 1 136 6.4 11.3 0.00 0.00 0.00 79 1.0
20190424095412 1 174 11.3 19.3 0.00 0.00 0.00 79 1.0
20190424094911 1 241 6.4 4.8 0.00 0.00 0.00 79 1.0
20190424094412 0 194 17.7 11.3 0.00 0.00 0.00 79 1.0
20190424093912 0 54 11.3 17.7 0.00 0.00 0.00 79 1.0
20190424093414 0 89 9.7 14.5 0.00 0.00 0.00 79 1.0
20190424092913 0 289 8.0 8.0 0.00 0.00 0.00 79 1.0
20190424092411 1 156 9.7 11.3 0.00 0.00 0.00 79 1.0
20190424091911 1 211 14.5 16.1 0.00 0.00 0.00 79 1.0
20190424091411 1 168 12.9 16.1 0.00 0.00 0.00 79
20190424090911 0 152 16.1 9.7 0.00 0.00 0.00 79
20190424090418 0 78 9.7 19.3 0.00 0.00 0.00 79
20190424085911 0 330 9.7 14.5 0.00 0.00 0.00 79
20190424085411 1 130 16.1 8.0 0.00 0.00 0.00 79
20190424084918 1 186 11.3 6.4 0.00 0.00 0.00 79
20190424084411 1 22 11.3 11.3 0.00 0.00 0.00 79
20190424083911 1 124 9.7 11.3 0.00 0.00 0.00 80
20190424083417 1 178 9.7 9.7 0.00 0.00 0.00 80
20190424082912 1 154 9.7 16.1 0.00 0.00 0.00 80
20190424082411 1 139 11.3 11.3 0.00 0.00 0.00 80
20190424081911 0 160 9.7 12.9 0.00 0.00 0.00 80
20190424081411 0 24 9.7 11.3 0.00 0.00 0.00 80 999.0
20190424080911 0 86 8.0 11.3 0.00 0.00 0.00 80 999.0
20190424080418 0 189 12.9 6.4 0.00 0.00 0.00 81 999.0
20190424075911 0 148 11.3 9.7 0.00 0.00 0.00 81 999.0
20190424075412 0 217 8.0 17.7 0.00 0.00 0.00 81 999.0
20190424074914 0 225 8.0 4.8 0.00 0.00 0.00 81 999.0
20190424073911 0 180 8.0 9.7 0.00 0.00 0.00 81 999.0
20190424073416 0 112 6.4 6.4 0.00 0.00 0.00 81 999.0
20190424072916 0 109 8.0 8.0 0.00 0.00 0.00 81 999.0
20190424072415 0 57 9.7 3.2 0.00 0.00 0.00 81 999.0
20190424071911 0 219 9.7 6.4 0.00 0.00 0.00 81 999.0
20190424071413 0 110 4.8 8.0 0.00 0.00 0.00 81 999.0
20190424070913 0 231 4.8 6.4 0.00 0.00 0.00 81 999.0
20190424070417 0 152 6.4 0.0 0.00 0.00 0.00 81 999.0
20190424065912 0 131 8.0 9.7 0.00 0.00 0.00 81 998.0
20190424065413 0 166 8.0 4.8 0.00 0.00 0.00 81 998.0
20190424064914 0 171 9.7 9.7 0.00 0.00 0.00 81 998.0
20190424063912 0 214 4.8 0.0 0.00 0.00 0.00 81 998.0
20190424063412 0 195 8.0 4.8 0.00 0.00 0.00 81 998.0
20190424062911 0 192 8.0 11.3 0.00 0.00 0.00 81 998.0
20190424061916 0 181 9.7 9.7 0.00 0.00 0.00 81 998.0
20190424061103 0 191 8.0 8.0 0.00 0.00 0.00 81 998.0
20190424055911 0 209 6.4 12.9 0.00 0.00 0.00 81 998.0
20190424055413 0 232 8.0 6.4 0.00 0.00 0.00 81 998.0
20190424054914 0 141 8.0 11.3 0.00 0.00 0.00 81 998.0
20190424054414 0 223 8.0 6.4 0.00 0.00 0.00 81 997.0
20190424053912 0 211 6.4 8.0 0.00 0.00 0.00 81 997.0
20190424053416 0 219 6.4 8.0 0.00 0.00 0.00 81 997.0
20190424052911 0 99 9.7 4.8 0.00 0.00 0.00 81 997.0
20190424052412 0 165 11.3 9.7 0.00 0.00 0.00 81 997.0
20190424051911 0 143 19.3 12.9 0.00 0.00 0.00 81 997.0
20190424051415 0 147 12.9 12.9 0.00 0.00 0.00 81 997.0
20190424050911 0 165 17.7 20.9 0.00 0.00 0.00 81 997.0
20190424050417 0 163 20.9 19.3 0.00 0.00 0.00 81 997.0
20190424045913 0 140 22.5 20.9 0.00 0.00 0.00 81 997.0
20190424044911 0 149 20.9 19.3 0.00 0.00 0.00 81 997.0
20190424043414 0 177 20.9 14.5 0.00 0.00 0.00 81 997.0
20190424042913 0 149 24.1 37.0 0.00 0.00 0.00 81 996.0
20190424041911 0 159 22.5 8.0 0.00 0.00 0.00 80 996.0
20190424035911 0 199 20.9 29.0 0.00 0.00 0.00 80 996.0
20190424035412 0 191 19.3 22.5 0.00 0.00 0.00 80 996.0
20190424034910 0 161 22.5 29.0 0.00 0.00 0.00 80 996.0
20190424034413 0 148 22.5 27.4 0.00 0.00 0.00 80 996.0
20190424033910 0 164 16.1 20.9 0.00 0.00 0.00 80 996.0
20190424033412 0 169 16.1 14.5 0.00 0.00 0.00 80 996.0
20190424032911 0 159 14.5 17.7 0.00 0.00 0.00 79 996.0
20190424032411 0 159 11.3 11.3 0.00 0.00 0.00 79 996.0
20190424031910 0 160 6.4 8.0 0.00 0.00 0.00 79 996.0
20190424031412 0 43 8.0 6.4 0.00 0.00 0.00 79 996.0
20190424030911 0 162 6.4 6.4 0.00 0.00 0.00 80 996.0
20190424030413 0 351 8.0 9.7 0.00 0.00 0.00 80 996.0
20190424025910 0 17 8.0 8.0 0.00 0.00 0.00 80 996.0
20190424024910 0 309 8.0 8.0 0.00 0.00 0.00 80 996.0
20190424024411 0 312 8.0 11.3 0.00 0.00 0.00 80 996.0
20190424023912 0 190 11.3 8.0 0.00 0.00 0.00 80 996.0
20190424023413 0 132 17.7 11.3 0.00 0.00 0.00 80 996.0
20190424022411 0 149 11.3 11.3 0.00 0.00 0.00 80 996.0
20190424021910 0 38 8.0 9.7 0.00 0.00 0.00 80 996.0
20190424021410 0 166 11.3 8.0 0.00 0.00 0.00 80 996.0
20190424020910 0 356 8.0 14.5 0.00 0.00 0.00 80 996.0
20190424020410 0 131 14.5 16.1 0.00 0.00 0.00 80 996.0